Regional Weather Roundup
Issued by NWS

Home | Current Version | Previous Version | Graphics & Text | Print | Product List | Glossary On
Versions: 1 2 3 4 5 6 7 8 9 10 11 12 13 14 15 16 17 18 19 20 21 22 23 24 25 26 27 28 29 30 31 32 33 34 35 36 37 38 39 40 41 42 43 44 45 46 47 48 49 50
000
ASUS45 KABQ 192110
RWRNM
NEW MEXICO REGIONAL WEATHER ROUNDUP
NATIONAL WEATHER SERVICE ALBUQUERQUE NM
200 PM MST SUN FEB 19 2017

NOTE: "FAIR" MEANS FEW OR NO CLOUDS BELOW 12,000 FEET AGL WITH NO
       SIGNIFICANT WEATHER OR OBSTRUCTIONS TO VISION.

      THIS PRODUCT IS RELEASED AS TWO VERSIONS.  ONE VERSION NEAR
      THE TOP OF THE HOUR CONTAINING PRELIMINARY DATA FROM ALBUQUERQUE
      AND OTHER STATIONS.  A FINAL VERSION WITH ADDITIONAL DATA IS
      ISSUED ABOUT 10 MINUTES AFTER THE HOUR.

NMZ501-503-504-510>518-192200-
NORTHWEST PLATEAU/NORTHCENTRAL MOUNTAINS

CITY           SKY/WX    TMP DP  RH WIND       PRES   REMARKS
FARMINGTON     PTSUNNY   49  26  41 W10G21    29.81S
LOS ALAMOS     FAIR      44  31  61 W10G16    29.83S
SANTA FE       FAIR      50  29  44 SW16G24   29.81F
TAOS             N/A     43  27  52 SW18      29.80F
ANGEL FIRE     FAIR      42  26  52 W20G28    29.79F

$$
NMZ402-403-502-505>509-192200-
WESTCENTRAL MOUNTAINS/SOUTHWEST MOUNTAINS

CITY           SKY/WX    TMP DP  RH WIND       PRES   REMARKS
GALLUP         FLURRIES  39  33  79 W18       29.88S WCI  30
GRANTS         CLOUDY    45  23  42 W10G22    29.88R
SILVER CITY    PTSUNNY   44  33  64 W21       29.95R

$$
NMZ407-409-411-412-192200-
SOUTHERN DESERTS

CITY           SKY/WX    TMP DP  RH WIND       PRES   REMARKS
DEMING         FAIR      53  35  50 W14       29.93F
LAS CRUCES     CLOUDY    53  29  41 W14       29.94S
HOLLOMAN AFB   FAIR      55  29  37 SW8       29.93F
ALAMOGORDO     CLOUDY    54  28  37 W10       29.92S
T OR C         CLOUDY    53  31  42 S16G24    29.88F

$$
NMZ519>523-192200-
CENTRAL VALLEYS/CENTRAL HIGHLANDS

CITY           SKY/WX    TMP DP  RH WIND       PRES   REMARKS
ALBUQUERQUE    PTSUNNY   51  30  44 SW8       29.83F
DOUBLE EAGLE   PTSUNNY   50  34  53 SW10      29.84F
MORIARTY ARPT  PTSUNNY   54  24  31 W15G21    29.84F
CLINES CORNERS FAIR      48  24  39 W21       29.83F
BELEN          FAIR      56  26  31 SW15G21   29.84F
SOCORRO        PTSUNNY   51  34  51 SE6       29.87F

$$
NMZ524>526-539-540-192200-
SOUTHCENTRAL MOUNTAINS

CITY           SKY/WX    TMP DP  RH WIND       PRES   REMARKS
RUIDOSO        FAIR      45  19  36 SW22G33   29.90R

$$
NMZ527>531-192200-
NORTHEAST HIGHLANDS/NORTHEAST PLAINS

CITY           SKY/WX    TMP DP  RH WIND       PRES   REMARKS
LAS VEGAS      FAIR      48  24  39 SW22G30   29.78F
RATON          FAIR      54  19  25 S30G38    29.71F
CLAYTON        CLOUDY    56  39  53 S17       29.78R

$$
NMZ532>537-192200-
EASTCENTRAL PLAINS

CITY           SKY/WX    TMP DP  RH WIND       PRES   REMARKS
TUCUMCARI      FAIR      61  33  35 SW18G24   29.78F
CANNON AFB     CLOUDY    56  37  47 SW12      29.79F
CLOVIS AIRPORT FAIR      57  39  51 SW8       29.80F

$$
NMZ028-029-538-192200-
SOUTHEAST PLAINS

CITY           SKY/WX    TMP DP  RH WIND       PRES   REMARKS
ROSWELL        FAIR      61  25  25 S21         N/A
ARTESIA        FAIR      61  28  29 SW21G32   29.82F
CARLSBAD       FAIR      63  26  24 W18G24    29.84S
HOBBS          SUNNY     59  28  31 SW15G21   29.86R


$$




USA.gov is the U.S. government's official web portal to all federal, state and local government web resources and services.